Home > Weather > Breckenridge > Past weeks

Flag for USA Weather for the Past 2 Weeks in Breckenridge, Colorado, USA

Now
30 °F

Snow. Ice fog.


Feels Like: 30 °F
Forecast: 26 / 37 °F
Wind: No wind

Location: Lake County Airport

Current Time: Apr 29, 2016 at 3:49:28 PM

Latest Report: Apr 29, 2016 at 2:53 PM


Visibility: 0 mi

Pressure: 29.67 "Hg (20.56 "Hg at 2921m altitude)

Humidity: 82%

Dew Point: 25 °F

Location of BreckenridgeLocation

Historic Weather in Breckenridge — Graph

°F

Breckenridge Temperature Yesterday

Maximum temperature yesterday: 35 °F (at 4:53 PM)
Minimum temperature yesterday: 26 °F (at 8:59 PM)
Average temperature yesterday: 29 °F

High & Low Weather Summary for the Past Weeks

 TemperatureHumidityPressure
High55 °F (Apr 22, 4:53 PM)100% (Apr 15, 5:53 PM)30.23 "Hg (Apr 15, 5:53 PM)
Low17 °F (Apr 26, 5:53 AM)21% (Apr 25, 2:53 PM)29.39 "Hg (Apr 15, 11:53 AM)
Average30 °F72%29.83 "Hg
* Reported Apr 14 2:53 PM — Apr 29 2:02 PM, Breckenridge, Weather by CustomWeather, © 2016

Note: Actual official high and low records may vary slightly from our data, if they occured in-between our weather recording intervals... More about our weather records

Advertising

Breckenridge Weather History for the Previous 24 Hours

Scroll right to see more
 ConditionsComfort  
Time TempWeatherWind HumidityBarometerVisibility
2:02 PM
Fri, Apr 29
31 °FMostly cloudy.5 mph69%29.83 "Hg9 mi
1:03 PM27 °FLight snow. Ice fog.6 mph89%29.84 "Hg2 mi
11:53 AM25 °FLight snow. Ice fog.10 mph96%29.73 "Hg1 mi
10:53 AM25 °FLight snow. Ice fog.9 mph92%29.73 "Hg1 mi
9:53 AM24 °FLight snow. Ice fog.9 mph100%29.74 "Hg1 mi
8:53 AM24 °FIce fog.8 mph96%29.76 "Hg5 mi
8:00 AM24 °FSnow. Ice fog.8 mph96%29.89 "Hg1 mi
6:53 AM24 °FLight snow. Ice fog.8 mph96%29.76 "Hg1 mi
5:53 AM23 °FPassing clouds.3 mph96%29.76 "Hg10 mi
4:53 AM24 °FLight snow. Mostly cloudy.8 mph96%29.72 "Hg9 mi
3:53 AM24 °FMostly cloudy.12 mph100%29.75 "Hg9 mi
2:53 AM24 °FLight snow. Ice fog.13 mph100%29.80 "Hg4 mi
1:53 AM25 °FMostly cloudy.10 mph100%29.81 "Hg10 mi
1:01 AM25 °FIce fog.7 mph100%29.95 "Hg2 mi
12:00 AM26 °FIce fog.8 mph100%29.96 "Hg2 mi
10:53 PM
Thu, Apr 28
26 °FIce fog.8 mph100%29.80 "Hg0 mi
9:53 PM27 °FLight snow. Ice fog.No wind96%29.81 "Hg2 mi
8:59 PM26 °FIce fog.No wind100%29.96 "Hg3 mi
7:53 PM27 °FIce fog.15 mph100%29.80 "Hg1 mi
6:56 PM27 °FIce fog.16 mph100%29.93 "Hg1 mi
5:53 PM29 °FLow clouds.16 mph100%29.71 "Hg10 mi
4:53 PM35 °FScattered clouds.N/A75%29.62 "Hg10 mi
3:53 PM33 °FScattered clouds.20 mph82%29.64 "Hg10 mi
Weather by CustomWeather, © 2016

See weather overviewHow to use our weather pages